Time,TemperatureF,DewpointF,PressureIn,WindDirection,WindDirectionDegrees,WindSpeedMPH,WindSpeedGustMPH,Humidity,HourlyPrecipIn,Conditions,Clouds,dailyrainin,SoftwareType,DateUTC
2013-03-05 00:00:00,32.5,22.8,29.91,NW,321,3.0,8.0,67,0.00,,,0.00,meteohub,2013-03-05 05:00:00,
2013-03-05 00:01:00,32.5,22.8,29.91,NNE,20,2.0,8.0,67,0.00,,,0.00,meteohub,2013-03-05 05:01:00,
2013-03-05 00:03:00,32.5,22.8,29.91,East,90,1.0,8.0,67,0.00,,,0.00,meteohub,2013-03-05 05:03:00,
2013-03-05 00:08:00,32.4,22.6,29.91,North,358,1.0,7.0,67,0.00,,,0.00,meteohub,2013-03-05 05:08:00,
2013-03-05 00:14:00,32.5,22.5,29.91,West,259,5.0,7.0,66,0.00,,,0.00,meteohub,2013-03-05 05:14:00,
2013-03-05 00:19:00,32.5,22.5,29.91,WSW,243,1.0,9.0,66,0.00,,,0.00,meteohub,2013-03-05 05:19:00,
2013-03-05 00:24:00,32.4,22.6,29.92,WNW,288,0.0,9.0,67,0.00,,,0.00,meteohub,2013-03-05 05:24:00,
2013-03-05 00:29:00,32.4,22.6,29.92,WNW,293,2.0,9.0,67,0.00,,,0.00,meteohub,2013-03-05 05:29:00,
2013-03-05 00:34:00,32.4,22.6,29.92,NW,308,3.0,7.0,67,0.00,,,0.00,meteohub,2013-03-05 05:34:00,
2013-03-05 00:39:00,32.4,22.6,29.92,NW,307,3.0,11.0,67,0.00,,,0.00,meteohub,2013-03-05 05:39:00,
2013-03-05 00:44:00,32.4,22.6,29.93,WSW,251,1.0,11.0,67,0.00,,,0.00,meteohub,2013-03-05 05:44:00,
2013-03-05 00:49:00,32.4,22.6,29.93,NNE,25,1.0,9.0,67,0.00,,,0.00,meteohub,2013-03-05 05:49:00,
2013-03-05 00:54:00,32.4,23.0,29.93,WNW,303,3.0,9.0,68,0.00,,,0.00,meteohub,2013-03-05 05:54:00,
2013-03-05 00:59:00,32.4,23.0,29.93,East,82,0.0,5.0,68,0.00,,,0.00,meteohub,2013-03-05 05:59:00,
2013-03-05 01:04:00,32.2,22.5,29.92,East,90,2.0,7.0,67,0.00,,,0.00,meteohub,2013-03-05 06:04:00,
2013-03-05 01:09:00,32.2,22.8,29.93,West,262,0.0,7.0,68,0.00,,,0.00,meteohub,2013-03-05 06:09:00,
2013-03-05 01:14:00,32.2,22.8,29.93,West,269,2.0,7.0,68,0.00,,,0.00,meteohub,2013-03-05 06:14:00,
2013-03-05 01:19:00,32.2,22.8,29.93,WNW,283,2.0,6.0,68,0.00,,,0.00,meteohub,2013-03-05 06:19:00,
2013-03-05 01:25:00,32.2,22.8,29.93,WSW,256,2.0,6.0,68,0.00,,,0.00,meteohub,2013-03-05 06:25:00,
2013-03-05 01:30:00,32.2,22.8,29.93,WSW,257,3.0,6.0,68,0.00,,,0.00,meteohub,2013-03-05 06:30:00,
2013-03-05 01:35:00,32.2,22.8,29.93,WNW,283,1.0,5.0,68,0.00,,,0.00,meteohub,2013-03-05 06:35:00,
2013-03-05 01:40:00,32.2,22.8,29.93,WNW,290,1.0,5.0,68,0.00,,,0.00,meteohub,2013-03-05 06:40:00,
2013-03-05 01:45:00,32.2,23.2,29.93,West,271,0.0,5.0,69,0.00,,,0.00,meteohub,2013-03-05 06:45:00,
2013-03-05 01:50:00,32.0,23.0,29.92,WSW,257,2.0,4.0,69,0.00,,,0.00,meteohub,2013-03-05 06:50:00,
2013-03-05 01:55:00,32.0,23.0,29.92,West,271,2.0,5.0,69,0.00,,,0.00,meteohub,2013-03-05 06:55:00,
2013-03-05 02:00:00,31.8,22.8,29.92,West,276,6.0,7.0,69,0.00,,,0.00,meteohub,2013-03-05 07:00:00,
2013-03-05 02:05:00,32.0,23.0,29.92,West,267,1.0,8.0,69,0.00,,,0.00,meteohub,2013-03-05 07:05:00,
2013-03-05 02:10:00,31.8,22.8,29.92,WNW,284,1.0,8.0,69,0.00,,,0.00,meteohub,2013-03-05 07:10:00,
2013-03-05 02:15:00,31.8,22.8,29.91,WSW,239,0.0,8.0,69,0.00,,,0.00,meteohub,2013-03-05 07:15:00,
2013-03-05 02:20:00,31.6,22.6,29.92,ENE,61,4.0,8.0,69,0.00,,,0.00,meteohub,2013-03-05 07:20:00,
2013-03-05 02:25:00,31.5,22.8,29.91,SW,221,1.0,8.0,70,0.00,,,0.00,meteohub,2013-03-05 07:25:00,
2013-03-05 02:30:00,31.3,22.6,29.91,NW,304,2.0,7.0,70,0.00,,,0.00,meteohub,2013-03-05 07:30:00,
2013-03-05 02:35:00,31.1,22.8,29.91,West,278,2.0,6.0,71,0.00,,,0.00,meteohub,2013-03-05 07:35:00,
2013-03-05 02:41:00,30.9,22.6,29.91,West,271,2.0,6.0,71,0.00,,,0.00,meteohub,2013-03-05 07:41:00,
2013-03-05 02:46:00,30.7,22.5,29.91,WNW,287,7.0,7.0,71,0.00,,,0.00,meteohub,2013-03-05 07:46:00,
2013-03-05 02:51:00,30.9,22.6,29.91,WNW,283,1.0,12.0,71,0.00,,,0.00,meteohub,2013-03-05 07:51:00,
2013-03-05 02:56:00,30.9,22.6,29.91,WSW,238,3.0,12.0,71,0.00,,,0.00,meteohub,2013-03-05 07:56:00,
2013-03-05 03:01:00,30.7,22.5,29.91,WSW,252,3.0,12.0,71,0.00,,,0.00,meteohub,2013-03-05 08:01:00,
2013-03-05 03:06:00,30.7,22.5,29.91,NW,314,1.0,7.0,71,0.00,,,0.00,meteohub,2013-03-05 08:06:00,
2013-03-05 03:11:00,30.6,22.3,29.91,SW,228,4.0,7.0,71,0.00,,,0.00,meteohub,2013-03-05 08:11:00,
2013-03-05 03:16:00,30.7,22.5,29.91,West,274,3.0,7.0,71,0.00,,,0.00,meteohub,2013-03-05 08:16:00,
2013-03-05 03:21:00,30.6,22.3,29.92,West,273,2.0,8.0,71,0.00,,,0.00,meteohub,2013-03-05 08:21:00,
2013-03-05 03:26:00,30.6,22.3,29.92,West,265,1.0,8.0,71,0.00,,,0.00,meteohub,2013-03-05 08:26:00,
2013-03-05 03:31:00,30.6,22.3,29.92,West,263,3.0,9.0,71,0.00,,,0.00,meteohub,2013-03-05 08:31:00,
2013-03-05 03:36:00,30.6,22.3,29.92,West,267,2.0,9.0,71,0.00,,,0.00,meteohub,2013-03-05 08:36:00,
2013-03-05 03:41:00,30.6,22.3,29.92,WNW,294,5.0,10.0,71,0.00,,,0.00,meteohub,2013-03-05 08:41:00,
2013-03-05 03:46:00,30.7,22.5,29.92,WNW,284,2.0,10.0,71,0.00,,,0.00,meteohub,2013-03-05 08:46:00,
2013-03-05 03:52:00,30.7,22.5,29.92,West,269,4.0,10.0,71,0.00,,,0.00,meteohub,2013-03-05 08:52:00,
2013-03-05 03:57:00,30.7,22.5,29.92,WNW,302,1.0,8.0,71,0.00,,,0.00,meteohub,2013-03-05 08:57:00,
2013-03-05 04:02:00,30.7,22.5,29.93,West,263,4.0,8.0,71,0.00,,,0.00,meteohub,2013-03-05 09:02:00,
2013-03-05 04:07:00,30.7,22.5,29.93,WSW,238,5.0,13.0,71,0.00,,,0.00,meteohub,2013-03-05 09:07:00,
2013-03-05 04:12:00,30.7,22.5,29.93,WNW,283,3.0,13.0,71,0.00,,,0.00,meteohub,2013-03-05 09:12:00,
2013-03-05 04:17:00,30.6,22.3,29.93,South,186,0.0,13.0,71,0.00,,,0.00,meteohub,2013-03-05 09:17:00,
2013-03-05 04:22:00,30.6,22.6,29.94,East,79,1.0,8.0,72,0.00,,,0.00,meteohub,2013-03-05 09:22:00,
2013-03-05 04:27:00,30.4,22.5,29.94,WNW,297,3.0,5.0,72,0.00,,,0.00,meteohub,2013-03-05 09:27:00,
2013-03-05 04:32:00,30.6,22.6,29.94,WNW,293,0.0,6.0,72,0.00,,,0.00,meteohub,2013-03-05 09:32:00,
2013-03-05 04:37:00,30.6,22.6,29.94,WNW,290,5.0,6.0,72,0.00,,,0.00,meteohub,2013-03-05 09:37:00,
2013-03-05 04:42:00,30.6,22.6,29.94,West,261,4.0,6.0,72,0.00,,,0.00,meteohub,2013-03-05 09:42:00,
2013-03-05 04:47:00,30.7,22.8,29.94,West,274,1.0,6.0,72,0.00,,,0.00,meteohub,2013-03-05 09:47:00,
2013-03-05 04:52:00,30.6,22.6,29.94,WSW,245,2.0,10.0,72,0.00,,,0.00,meteohub,2013-03-05 09:52:00,
2013-03-05 04:57:00,30.4,22.5,29.94,NW,314,3.0,10.0,72,0.00,,,0.00,meteohub,2013-03-05 09:57:00,
2013-03-05 05:02:00,30.4,22.8,29.94,West,280,3.0,5.0,73,0.00,,,0.00,meteohub,2013-03-05 10:02:00,
2013-03-05 05:07:00,30.6,22.6,29.95,West,278,2.0,11.0,72,0.00,,,0.00,meteohub,2013-03-05 10:07:00,
2013-03-05 05:12:00,30.6,23.0,29.95,WNW,302,1.0,11.0,73,0.00,,,0.00,meteohub,2013-03-05 10:12:00,
2013-03-05 05:17:00,30.4,22.8,29.95,NW,307,2.0,11.0,73,0.00,,,0.00,meteohub,2013-03-05 10:17:00,
2013-03-05 05:22:00,30.4,22.8,29.95,NW,304,3.0,6.0,73,0.00,,,0.00,meteohub,2013-03-05 10:22:00,
2013-03-05 05:27:00,30.2,23.0,29.95,WNW,293,2.0,7.0,74,0.00,,,0.00,meteohub,2013-03-05 10:27:00,
2013-03-05 05:32:00,30.0,22.8,29.95,West,267,1.0,7.0,74,0.00,,,0.00,meteohub,2013-03-05 10:32:00,
2013-03-05 05:37:00,30.0,22.8,29.95,WSW,257,1.0,5.0,74,0.00,,,0.00,meteohub,2013-03-05 10:37:00,
2013-03-05 05:42:00,30.0,22.8,29.96,WNW,289,3.0,5.0,74,0.00,,,0.00,meteohub,2013-03-05 10:42:00,
2013-03-05 05:47:00,30.0,22.8,29.96,WNW,299,3.0,5.0,74,0.00,,,0.00,meteohub,2013-03-05 10:47:00,
2013-03-05 05:52:00,30.0,22.8,29.96,NW,305,2.0,6.0,74,0.00,,,0.00,meteohub,2013-03-05 10:52:00,
2013-03-05 05:57:00,29.8,22.8,29.96,West,278,1.0,6.0,75,0.00,,,0.00,meteohub,2013-03-05 10:57:00,
2013-03-05 06:02:00,29.8,22.8,29.96,WNW,302,2.0,6.0,75,0.00,,,0.00,meteohub,2013-03-05 11:02:00,
2013-03-05 06:07:00,29.8,22.8,29.96,South,186,0.0,4.0,75,0.00,,,0.00,meteohub,2013-03-05 11:07:00,
2013-03-05 06:12:00,29.7,22.6,29.96,WNW,283,0.0,4.0,75,0.00,,,0.00,meteohub,2013-03-05 11:12:00,
2013-03-05 06:17:00,29.7,22.6,29.96,West,280,1.0,4.0,75,0.00,,,0.00,meteohub,2013-03-05 11:17:00,
2013-03-05 06:22:00,29.7,22.6,29.96,WSW,239,2.0,3.0,75,0.00,,,0.00,meteohub,2013-03-05 11:22:00,
2013-03-05 06:27:00,29.5,22.5,29.96,ENE,72,0.0,3.0,75,0.00,,,0.00,meteohub,2013-03-05 11:27:00,
2013-03-05 06:32:00,29.1,22.5,29.96,NW,309,3.0,3.0,76,0.00,,,0.00,meteohub,2013-03-05 11:32:00,
2013-03-05 06:37:00,29.1,22.5,29.96,WSW,256,2.0,5.0,76,0.00,,,0.00,meteohub,2013-03-05 11:37:00,
2013-03-05 06:42:00,29.1,22.5,29.96,North,1,0.0,5.0,76,0.00,,,0.00,meteohub,2013-03-05 11:42:00,
2013-03-05 06:47:00,29.1,22.5,29.96,WSW,238,2.0,5.0,76,0.00,,,0.00,meteohub,2013-03-05 11:47:00,
2013-03-05 06:52:00,29.1,22.5,29.96,WSW,256,1.0,4.0,76,0.00,,,0.00,meteohub,2013-03-05 11:52:00,
2013-03-05 06:57:00,29.8,23.2,29.97,ESE,110,1.0,3.0,76,0.00,,,0.00,meteohub,2013-03-05 11:57:00,
2013-03-05 07:02:00,30.6,23.5,29.97,East,89,2.0,3.0,75,0.00,,,0.00,meteohub,2013-03-05 12:02:00,
2013-03-05 07:07:00,30.9,23.4,29.97,ENE,61,4.0,4.0,73,0.00,,,0.00,meteohub,2013-03-05 12:07:00,
2013-03-05 07:12:00,31.3,23.4,29.97,ENE,77,0.0,5.0,72,0.00,,,0.00,meteohub,2013-03-05 12:12:00,
2013-03-05 07:17:00,32.0,24.1,29.97,East,85,0.0,6.0,72,0.00,,,0.00,meteohub,2013-03-05 12:17:00,
2013-03-05 07:22:00,32.4,24.1,29.97,WNW,299,1.0,6.0,71,0.00,,,0.00,meteohub,2013-03-05 12:22:00,
2013-03-05 07:27:00,32.5,23.5,29.97,NW,321,2.0,6.0,69,0.00,,,0.00,meteohub,2013-03-05 12:27:00,
2013-03-05 07:32:00,32.9,23.9,29.97,West,280,0.0,6.0,69,0.00,,,0.00,meteohub,2013-03-05 12:32:00,
2013-03-05 07:37:00,33.3,23.9,29.97,WSW,250,1.0,6.0,68,0.00,,,0.00,meteohub,2013-03-05 12:37:00,
2013-03-05 07:42:00,33.6,23.9,29.97,WNW,292,0.0,7.0,67,0.00,,,0.00,meteohub,2013-03-05 12:42:00,
2013-03-05 07:47:00,34.0,24.3,29.97,West,273,7.0,7.0,67,0.00,,,0.00,meteohub,2013-03-05 12:47:00,
2013-03-05 07:52:00,34.0,23.9,29.97,WSW,253,2.0,7.0,66,0.00,,,0.00,meteohub,2013-03-05 12:52:00,
2013-03-05 07:57:00,34.0,23.9,29.98,NW,322,2.0,7.0,66,0.00,,,0.00,meteohub,2013-03-05 12:57:00,
2013-03-05 08:02:00,34.3,24.1,29.98,West,275,2.0,7.0,66,0.00,,,0.00,meteohub,2013-03-05 13:02:00,
2013-03-05 08:07:00,34.5,23.9,29.98,West,263,2.0,6.0,65,0.00,,,0.00,meteohub,2013-03-05 13:07:00,
2013-03-05 08:12:00,35.1,24.4,29.98,WNW,292,6.0,6.0,65,0.00,,,0.00,meteohub,2013-03-05 13:12:00,
2013-03-05 08:17:00,34.9,23.9,29.98,WNW,302,3.0,9.0,64,0.00,,,0.00,meteohub,2013-03-05 13:17:00,
2013-03-05 08:22:00,34.9,23.9,29.98,WSW,238,1.0,9.0,64,0.00,,,0.00,meteohub,2013-03-05 13:22:00,
2013-03-05 08:27:00,35.1,24.4,29.98,NNW,342,3.0,9.0,65,0.00,,,0.00,meteohub,2013-03-05 13:27:00,
2013-03-05 08:32:00,35.1,24.1,29.98,SSW,208,1.0,7.0,64,0.00,,,0.00,meteohub,2013-03-05 13:32:00,
2013-03-05 08:37:00,35.4,24.8,29.99,West,275,1.0,7.0,65,0.00,,,0.00,meteohub,2013-03-05 13:37:00,
2013-03-05 08:42:00,36.3,25.0,29.99,WNW,293,0.0,7.0,63,0.00,,,0.00,meteohub,2013-03-05 13:42:00,
2013-03-05 08:47:00,36.3,24.1,29.99,West,260,6.0,7.0,61,0.00,,,0.00,meteohub,2013-03-05 13:47:00,
2013-03-05 08:52:00,35.8,24.1,29.99,WNW,297,2.0,7.0,62,0.00,,,0.00,meteohub,2013-03-05 13:52:00,
2013-03-05 08:57:00,35.8,24.4,29.99,WNW,288,2.0,8.0,63,0.00,,,0.00,meteohub,2013-03-05 13:57:00,
2013-03-05 09:02:00,36.7,25.3,29.99,West,277,2.0,8.0,63,0.00,,,0.00,meteohub,2013-03-05 14:02:00,
2013-03-05 09:07:00,37.2,25.0,29.99,NNW,338,1.0,8.0,61,0.00,,,0.00,meteohub,2013-03-05 14:07:00,
2013-03-05 09:12:00,37.6,25.0,29.99,West,281,1.0,6.0,60,0.00,,,0.00,meteohub,2013-03-05 14:12:00,
2013-03-05 09:17:00,37.8,25.2,29.99,ENE,61,2.0,6.0,60,0.00,,,0.00,meteohub,2013-03-05 14:17:00,
2013-03-05 09:22:00,37.6,25.0,29.99,West,275,5.0,7.0,60,0.00,,,0.00,meteohub,2013-03-05 14:22:00,
2013-03-05 09:27:00,37.6,25.0,29.99,WSW,253,3.0,10.0,60,0.00,,,0.00,meteohub,2013-03-05 14:27:00,
2013-03-05 09:32:00,37.9,25.3,29.99,West,277,3.0,10.0,60,0.00,,,0.00,meteohub,2013-03-05 14:32:00,
2013-03-05 09:37:00,38.1,25.0,29.99,ENE,73,1.0,10.0,59,0.00,,,0.00,meteohub,2013-03-05 14:37:00,
2013-03-05 09:42:00,38.5,25.0,29.99,WNW,285,1.0,5.0,58,0.00,,,0.00,meteohub,2013-03-05 14:42:00,
2013-03-05 09:47:00,37.8,24.8,29.99,West,276,3.0,7.0,59,0.00,,,0.00,meteohub,2013-03-05 14:47:00,
2013-03-05 09:52:00,37.9,25.0,29.99,WNW,287,3.0,7.0,59,0.00,,,0.00,meteohub,2013-03-05 14:52:00,
2013-03-05 09:57:00,38.1,25.0,29.98,SSW,204,2.0,7.0,59,0.00,,,0.00,meteohub,2013-03-05 14:57:00,
2013-03-05 10:02:00,38.8,25.7,29.98,ENE,71,3.0,8.0,59,0.00,,,0.00,meteohub,2013-03-05 15:02:00,
2013-03-05 10:07:00,39.4,25.3,29.98,West,264,1.0,8.0,57,0.00,,,0.00,meteohub,2013-03-05 15:07:00,
2013-03-05 10:12:00,39.4,25.3,29.98,NW,311,1.0,8.0,57,0.00,,,0.00,meteohub,2013-03-05 15:12:00,
2013-03-05 10:17:00,39.7,25.3,29.98,WNW,292,4.0,4.0,56,0.00,,,0.00,meteohub,2013-03-05 15:17:00,
2013-03-05 10:22:00,39.2,25.2,29.98,WSW,243,1.0,8.0,57,0.00,,,0.00,meteohub,2013-03-05 15:22:00,
2013-03-05 10:27:00,39.9,25.9,29.98,West,273,3.0,8.0,57,0.00,,,0.00,meteohub,2013-03-05 15:27:00,
2013-03-05 10:32:00,39.9,25.5,29.98,NNE,29,4.0,8.0,56,0.00,,,0.00,meteohub,2013-03-05 15:32:00,
2013-03-05 10:37:00,39.9,25.0,29.97,WNW,288,2.0,6.0,55,0.00,,,0.00,meteohub,2013-03-05 15:37:00,
2013-03-05 10:42:00,40.8,26.8,29.97,NNE,25,1.0,6.0,57,0.00,,,0.00,meteohub,2013-03-05 15:42:00,
2013-03-05 10:47:00,41.2,26.6,29.97,North,349,2.0,6.0,56,0.00,,,0.00,meteohub,2013-03-05 15:47:00,
2013-03-05 10:52:00,40.8,25.5,29.97,North,10,3.0,7.0,54,0.00,,,0.00,meteohub,2013-03-05 15:52:00,
2013-03-05 10:57:00,40.8,25.9,29.96,West,277,1.0,7.0,55,0.00,,,0.00,meteohub,2013-03-05 15:57:00,
2013-03-05 11:02:00,41.0,25.7,29.96,NW,314,2.0,7.0,54,0.00,,,0.00,meteohub,2013-03-05 16:02:00,
2013-03-05 11:07:00,41.2,25.9,29.96,ENE,66,1.0,7.0,54,0.00,,,0.00,meteohub,2013-03-05 16:07:00,
2013-03-05 11:12:00,41.4,25.5,29.96,SSW,211,2.0,6.0,53,0.00,,,0.00,meteohub,2013-03-05 16:12:00,
2013-03-05 11:17:00,41.7,26.2,29.96,WNW,290,1.0,6.0,54,0.00,,,0.00,meteohub,2013-03-05 16:17:00,
2013-03-05 11:22:00,42.6,26.2,29.96,ENE,78,5.0,5.0,52,0.00,,,0.00,meteohub,2013-03-05 16:22:00,
2013-03-05 11:27:00,41.7,25.3,29.96,SE,141,2.0,5.0,52,0.00,,,0.00,meteohub,2013-03-05 16:27:00,
2013-03-05 11:32:00,41.5,25.2,29.96,WNW,289,2.0,5.0,52,0.00,,,0.00,meteohub,2013-03-05 16:32:00,
2013-03-05 11:37:00,42.1,26.2,29.96,ESE,103,2.0,8.0,53,0.00,,,0.00,meteohub,2013-03-05 16:37:00,
2013-03-05 11:42:00,42.4,26.1,29.96,NW,313,1.0,8.0,52,0.00,,,0.00,meteohub,2013-03-05 16:42:00,
2013-03-05 11:47:00,43.0,27.0,29.96,WSW,249,4.0,8.0,53,0.00,,,0.00,meteohub,2013-03-05 16:47:00,
2013-03-05 11:52:00,43.2,26.2,29.96,SE,131,0.0,6.0,51,0.00,,,0.00,meteohub,2013-03-05 16:52:00,
2013-03-05 11:57:00,43.7,26.8,29.95,NE,40,2.0,8.0,51,0.00,,,0.00,meteohub,2013-03-05 16:57:00,
2013-03-05 12:02:00,43.5,26.1,29.96,NE,44,1.0,8.0,50,0.00,,,0.00,meteohub,2013-03-05 17:02:00,
2013-03-05 12:07:00,43.9,26.4,29.96,SSE,157,0.0,6.0,50,0.00,,,0.00,meteohub,2013-03-05 17:07:00,
2013-03-05 12:12:00,43.9,26.4,29.95,NNW,333,0.0,6.0,50,0.00,,,0.00,meteohub,2013-03-05 17:12:00,
2013-03-05 12:17:00,43.9,26.4,29.95,SE,145,3.0,6.0,50,0.00,,,0.00,meteohub,2013-03-05 17:17:00,
2013-03-05 12:22:00,44.4,27.0,29.95,SE,125,2.0,6.0,50,0.00,,,0.00,meteohub,2013-03-05 17:22:00,
2013-03-05 12:27:00,45.0,27.5,29.95,WNW,299,0.0,6.0,50,0.00,,,0.00,meteohub,2013-03-05 17:27:00,
2013-03-05 12:32:00,45.0,27.0,29.95,West,271,2.0,6.0,49,0.00,,,0.00,meteohub,2013-03-05 17:32:00,
2013-03-05 12:37:00,44.8,27.3,29.95,WSW,253,4.0,5.0,50,0.00,,,0.00,meteohub,2013-03-05 17:37:00,
2013-03-05 12:42:00,44.4,26.4,29.95,NNW,341,0.0,9.0,49,0.00,,,0.00,meteohub,2013-03-05 17:42:00,
2013-03-05 12:47:00,44.8,26.8,29.95,WSW,250,2.0,9.0,49,0.00,,,0.00,meteohub,2013-03-05 17:47:00,
2013-03-05 12:52:00,45.0,26.4,29.95,SE,131,4.0,6.0,48,0.00,,,0.00,meteohub,2013-03-05 17:52:00,
2013-03-05 12:57:00,45.3,27.9,29.95,West,280,4.0,4.0,50,0.00,,,0.00,meteohub,2013-03-05 17:57:00,
2013-03-05 13:02:00,45.0,27.5,29.95,North,6,1.0,6.0,50,0.00,,,0.00,meteohub,2013-03-05 18:02:00,
2013-03-05 13:07:00,45.3,26.8,29.94,North,3,1.0,7.0,48,0.00,,,0.00,meteohub,2013-03-05 18:07:00,
2013-03-05 13:12:00,45.1,27.1,29.94,SE,124,0.0,7.0,49,0.00,,,0.00,meteohub,2013-03-05 18:12:00,
2013-03-05 13:17:00,45.1,27.1,29.94,SSW,204,2.0,5.0,49,0.00,,,0.00,meteohub,2013-03-05 18:17:00,
2013-03-05 13:22:00,45.9,27.3,29.94,SE,138,4.0,5.0,48,0.00,,,0.00,meteohub,2013-03-05 18:22:00,
2013-03-05 13:27:00,45.5,27.5,29.94,NE,44,3.0,5.0,49,0.00,,,0.00,meteohub,2013-03-05 18:27:00,
2013-03-05 13:32:00,45.7,27.7,29.94,SW,222,3.0,6.0,49,0.00,,,0.00,meteohub,2013-03-05 18:32:00,
2013-03-05 13:37:00,46.0,27.5,29.93,West,262,3.0,7.0,48,0.00,,,0.00,meteohub,2013-03-05 18:37:00,
2013-03-05 13:42:00,45.3,27.3,29.93,West,266,5.0,8.0,49,0.00,,,0.00,meteohub,2013-03-05 18:42:00,
2013-03-05 13:47:00,45.5,27.0,29.93,NW,310,3.0,8.0,48,0.00,,,0.00,meteohub,2013-03-05 18:47:00,
2013-03-05 13:52:00,45.9,27.9,29.93,SE,131,0.0,8.0,49,0.00,,,0.00,meteohub,2013-03-05 18:52:00,
2013-03-05 13:57:00,46.6,27.9,29.93,WSW,244,8.0,8.0,48,0.00,,,0.00,meteohub,2013-03-05 18:57:00,
2013-03-05 14:02:00,46.0,27.0,29.93,NNE,29,1.0,8.0,47,0.00,,,0.00,meteohub,2013-03-05 19:02:00,
2013-03-05 14:07:00,46.8,27.7,29.93,WSW,252,3.0,8.0,47,0.00,,,0.00,meteohub,2013-03-05 19:07:00,
2013-03-05 14:12:00,46.9,27.3,29.93,WSW,256,6.0,8.0,46,0.00,,,0.00,meteohub,2013-03-05 19:12:00,
2013-03-05 14:17:00,46.8,27.7,29.93,West,270,1.0,6.0,47,0.00,,,0.00,meteohub,2013-03-05 19:17:00,
2013-03-05 14:22:00,46.8,27.7,29.92,SW,233,0.0,6.0,47,0.00,,,0.00,meteohub,2013-03-05 19:22:00,
2013-03-05 14:27:00,47.5,28.2,29.92,SE,131,3.0,6.0,47,0.00,,,0.00,meteohub,2013-03-05 19:27:00,
2013-03-05 14:32:00,47.8,27.5,29.92,South,191,1.0,5.0,45,0.00,,,0.00,meteohub,2013-03-05 19:32:00,
2013-03-05 14:37:00,48.0,27.7,29.92,SSE,152,2.0,4.0,45,0.00,,,0.00,meteohub,2013-03-05 19:37:00,
2013-03-05 14:42:00,48.0,27.7,29.92,NE,37,2.0,4.0,45,0.00,,,0.00,meteohub,2013-03-05 19:42:00,
2013-03-05 14:47:00,47.7,27.9,29.92,SE,146,1.0,5.0,46,0.00,,,0.00,meteohub,2013-03-05 19:47:00,
2013-03-05 14:52:00,48.4,28.0,29.92,South,169,2.0,5.0,45,0.00,,,0.00,meteohub,2013-03-05 19:52:00,
2013-03-05 14:58:00,48.0,27.7,29.91,SSE,148,2.0,6.0,45,0.00,,,0.00,meteohub,2013-03-05 19:58:00,
2013-03-05 15:03:00,48.0,27.7,29.91,SSW,210,0.0,6.0,45,0.00,,,0.00,meteohub,2013-03-05 20:03:00,
2013-03-05 15:08:00,48.7,28.4,29.91,SSE,165,0.0,6.0,45,0.00,,,0.00,meteohub,2013-03-05 20:08:00,
2013-03-05 15:13:00,48.7,27.9,29.91,West,264,0.0,6.0,44,0.00,,,0.00,meteohub,2013-03-05 20:13:00,
2013-03-05 15:18:00,49.3,28.2,29.91,SE,134,0.0,4.0,44,0.00,,,0.00,meteohub,2013-03-05 20:18:00,
2013-03-05 15:23:00,49.5,28.4,29.91,WNW,288,2.0,4.0,44,0.00,,,0.00,meteohub,2013-03-05 20:23:00,
2013-03-05 15:28:00,49.1,28.0,29.91,ENE,58,3.0,3.0,44,0.00,,,0.00,meteohub,2013-03-05 20:28:00,
2013-03-05 15:33:00,48.7,27.9,29.91,West,260,2.0,5.0,44,0.00,,,0.00,meteohub,2013-03-05 20:33:00,
2013-03-05 15:38:00,48.6,27.7,29.91,WNW,288,1.0,5.0,44,0.00,,,0.00,meteohub,2013-03-05 20:38:00,
2013-03-05 15:44:00,48.0,27.7,29.91,South,179,1.0,5.0,45,0.00,,,0.00,meteohub,2013-03-05 20:44:00,
2013-03-05 15:49:00,47.8,27.5,29.90,WSW,244,0.0,5.0,45,0.00,,,0.00,meteohub,2013-03-05 20:49:00,
2013-03-05 15:54:00,48.0,28.8,29.90,ENE,71,0.0,5.0,47,0.00,,,0.00,meteohub,2013-03-05 20:54:00,
2013-03-05 15:59:00,48.0,27.7,29.90,NE,35,0.0,4.0,45,0.00,,,0.00,meteohub,2013-03-05 20:59:00,
2013-03-05 16:04:00,48.0,27.7,29.90,ENE,64,2.0,4.0,45,0.00,,,0.00,meteohub,2013-03-05 21:04:00,
2013-03-05 16:09:00,47.8,27.5,29.90,ESE,117,2.0,3.0,45,0.00,,,0.00,meteohub,2013-03-05 21:09:00,
2013-03-05 16:14:00,47.7,27.3,29.90,ESE,111,2.0,5.0,45,0.00,,,0.00,meteohub,2013-03-05 21:14:00,
2013-03-05 16:19:00,47.7,26.8,29.89,East,86,1.0,5.0,44,0.00,,,0.00,meteohub,2013-03-05 21:19:00,
2013-03-05 16:24:00,47.7,27.3,29.89,SE,146,0.0,5.0,45,0.00,,,0.00,meteohub,2013-03-05 21:24:00,
2013-03-05 16:29:00,47.8,28.0,29.89,East,93,3.0,6.0,46,0.00,,,0.00,meteohub,2013-03-05 21:29:00,
2013-03-05 16:34:00,47.8,27.5,29.89,ENE,65,6.0,6.0,45,0.00,,,0.00,meteohub,2013-03-05 21:34:00,
2013-03-05 16:39:00,47.3,27.5,29.89,North,3,3.0,6.0,46,0.00,,,0.00,meteohub,2013-03-05 21:39:00,
2013-03-05 16:44:00,47.3,27.5,29.89,ENE,64,2.0,9.0,46,0.00,,,0.00,meteohub,2013-03-05 21:44:00,
2013-03-05 16:50:00,47.1,27.3,29.89,East,86,5.0,9.0,46,0.00,,,0.00,meteohub,2013-03-05 21:50:00,
2013-03-05 16:55:00,47.3,27.5,29.89,NE,48,4.0,6.0,46,0.00,,,0.00,meteohub,2013-03-05 21:55:00,
2013-03-05 17:00:00,47.1,27.9,29.90,ENE,63,0.0,6.0,47,0.00,,,0.00,meteohub,2013-03-05 22:00:00,
2013-03-05 17:05:00,47.1,27.3,29.90,ENE,64,2.0,4.0,46,0.00,,,0.00,meteohub,2013-03-05 22:05:00,
2013-03-05 17:10:00,46.9,27.7,29.90,East,91,3.0,5.0,47,0.00,,,0.00,meteohub,2013-03-05 22:10:00,
2013-03-05 17:15:00,46.6,27.5,29.90,NE,53,4.0,6.0,47,0.00,,,0.00,meteohub,2013-03-05 22:15:00,
2013-03-05 17:20:00,46.2,27.1,29.90,ENE,70,2.0,6.0,47,0.00,,,0.00,meteohub,2013-03-05 22:20:00,
2013-03-05 17:25:00,46.0,27.5,29.90,East,91,1.0,6.0,48,0.00,,,0.00,meteohub,2013-03-05 22:25:00,
2013-03-05 17:30:00,45.9,26.8,29.91,ENE,58,2.0,5.0,47,0.00,,,0.00,meteohub,2013-03-05 22:30:00,
2013-03-05 17:35:00,45.7,27.7,29.91,ENE,65,0.0,4.0,49,0.00,,,0.00,meteohub,2013-03-05 22:35:00,
2013-03-05 17:40:00,45.1,27.7,29.90,ENE,65,1.0,4.0,50,0.00,,,0.00,meteohub,2013-03-05 22:40:00,
2013-03-05 17:46:00,44.8,27.3,29.90,ENE,64,1.0,4.0,50,0.00,,,0.00,meteohub,2013-03-05 22:46:00,
2013-03-05 17:51:00,44.1,27.5,29.91,ENE,75,0.0,2.0,52,0.00,,,0.00,meteohub,2013-03-05 22:51:00,
2013-03-05 17:56:00,43.2,27.7,29.91,ENE,75,0.0,2.0,54,0.00,,,0.00,meteohub,2013-03-05 22:56:00,
2013-03-05 18:01:00,42.1,27.5,29.91,ENE,75,0.0,2.0,56,0.00,,,0.00,meteohub,2013-03-05 23:01:00,
2013-03-05 18:06:00,41.0,26.4,29.91,ENE,75,0.0,1.0,56,0.00,,,0.00,meteohub,2013-03-05 23:06:00,
2013-03-05 18:11:00,39.9,27.1,29.91,ENE,75,0.0,1.0,60,0.00,,,0.00,meteohub,2013-03-05 23:11:00,
2013-03-05 18:16:00,39.0,26.8,29.92,ENE,75,0.0,1.0,61,0.00,,,0.00,meteohub,2013-03-05 23:16:00,
2013-03-05 18:21:00,37.9,26.4,29.92,ENE,75,0.0,1.0,63,0.00,,,0.00,meteohub,2013-03-05 23:21:00,
2013-03-05 18:26:00,37.0,26.4,29.92,ENE,75,1.0,1.0,65,0.00,,,0.00,meteohub,2013-03-05 23:26:00,
2013-03-05 18:31:00,36.7,26.4,29.92,ENE,75,0.0,1.0,66,0.00,,,0.00,meteohub,2013-03-05 23:31:00,
2013-03-05 18:36:00,36.1,26.2,29.92,ENE,75,0.0,1.0,67,0.00,,,0.00,meteohub,2013-03-05 23:36:00,
2013-03-05 18:41:00,35.2,26.1,29.92,ENE,75,0.0,1.0,69,0.00,,,0.00,meteohub,2013-03-05 23:41:00,
2013-03-05 18:47:00,34.5,25.7,29.93,ENE,75,0.0,1.0,70,0.00,,,0.00,meteohub,2013-03-05 23:47:00,
2013-03-05 18:52:00,34.0,25.5,29.92,ENE,75,0.0,1.0,71,0.00,,,0.00,meteohub,2013-03-05 23:52:00,
2013-03-05 18:57:00,33.6,25.9,29.92,ENE,75,1.0,0.0,73,0.00,,,0.00,meteohub,2013-03-05 23:57:00,
2013-03-05 19:02:00,33.4,25.3,29.93,ENE,75,0.0,1.0,72,0.00,,,0.00,meteohub,2013-03-06 00:02:00,
2013-03-05 19:07:00,33.1,25.3,29.93,ENE,75,0.0,1.0,73,0.00,,,0.00,meteohub,2013-03-06 00:07:00,
2013-03-05 19:12:00,32.7,25.3,29.93,ENE,75,0.0,1.0,74,0.00,,,0.00,meteohub,2013-03-06 00:12:00,
2013-03-05 19:17:00,32.5,25.5,29.93,ENE,75,1.0,1.0,75,0.00,,,0.00,meteohub,2013-03-06 00:17:00,
2013-03-05 19:22:00,32.4,25.3,29.92,ENE,75,0.0,1.0,75,0.00,,,0.00,meteohub,2013-03-06 00:22:00,
2013-03-05 19:27:00,31.8,24.8,29.93,ENE,75,0.0,1.0,75,0.00,,,0.00,meteohub,2013-03-06 00:27:00,
2013-03-05 19:32:00,31.5,24.8,29.93,ENE,75,1.0,1.0,76,0.00,,,0.00,meteohub,2013-03-06 00:32:00,
2013-03-05 19:37:00,31.3,25.2,29.93,ENE,75,0.0,1.0,78,0.00,,,0.00,meteohub,2013-03-06 00:37:00,
2013-03-05 19:42:00,31.3,25.2,29.93,ENE,75,0.0,1.0,78,0.00,,,0.00,meteohub,2013-03-06 00:42:00,
2013-03-05 19:47:00,31.1,25.0,29.92,ENE,75,0.0,1.0,78,0.00,,,0.00,meteohub,2013-03-06 00:47:00,
2013-03-05 19:52:00,30.9,24.8,29.92,ENE,75,0.0,1.0,78,0.00,,,0.00,meteohub,2013-03-06 00:52:00,
2013-03-05 19:57:00,30.9,25.2,29.92,ENE,69,2.0,2.0,79,0.00,,,0.00,meteohub,2013-03-06 00:57:00,
2013-03-05 20:02:00,30.9,25.5,29.92,ENE,72,3.0,3.0,80,0.00,,,0.00,meteohub,2013-03-06 01:02:00,
2013-03-05 20:07:00,31.3,25.9,29.92,East,85,3.0,3.0,80,0.00,,,0.00,meteohub,2013-03-06 01:07:00,
2013-03-05 20:12:00,33.6,26.8,29.92,NE,45,3.0,7.0,76,0.00,,,0.00,meteohub,2013-03-06 01:12:00,
2013-03-05 20:17:00,35.4,27.7,29.92,NE,47,4.0,7.0,73,0.00,,,0.00,meteohub,2013-03-06 01:17:00,
2013-03-05 20:22:00,36.3,27.9,29.92,East,80,3.0,7.0,71,0.00,,,0.00,meteohub,2013-03-06 01:22:00,
2013-03-05 20:27:00,37.0,28.2,29.92,East,90,1.0,5.0,70,0.00,,,0.00,meteohub,2013-03-06 01:27:00,
2013-03-05 20:32:00,37.2,28.0,29.92,ESE,103,2.0,5.0,69,0.00,,,0.00,meteohub,2013-03-06 01:32:00,
2013-03-05 20:37:00,37.6,28.4,29.92,ENE,67,0.0,5.0,69,0.00,,,0.00,meteohub,2013-03-06 01:37:00,
2013-03-05 20:42:00,37.6,28.4,29.93,East,97,2.0,5.0,69,0.00,,,0.00,meteohub,2013-03-06 01:42:00,
2013-03-05 20:47:00,37.4,28.2,29.93,ENE,71,3.0,4.0,69,0.00,,,0.00,meteohub,2013-03-06 01:47:00,
2013-03-05 20:52:00,37.2,28.0,29.93,East,93,0.0,4.0,69,0.00,,,0.00,meteohub,2013-03-06 01:52:00,
2013-03-05 20:57:00,36.9,28.0,29.94,East,95,0.0,4.0,70,0.00,,,0.00,meteohub,2013-03-06 01:57:00,
2013-03-05 21:02:00,36.9,28.0,29.94,East,97,2.0,3.0,70,0.00,,,0.00,meteohub,2013-03-06 02:02:00,
2013-03-05 21:07:00,36.9,28.0,29.94,East,97,0.0,3.0,70,0.00,,,0.00,meteohub,2013-03-06 02:07:00,
2013-03-05 21:12:00,37.0,28.2,29.94,East,93,2.0,4.0,70,0.00,,,0.00,meteohub,2013-03-06 02:12:00,
2013-03-05 21:17:00,37.2,28.4,29.93,East,96,1.0,4.0,70,0.00,,,0.00,meteohub,2013-03-06 02:17:00,
2013-03-05 21:22:00,37.2,28.4,29.93,East,91,0.0,3.0,70,0.00,,,0.00,meteohub,2013-03-06 02:22:00,
2013-03-05 21:27:00,37.2,28.4,29.93,East,90,0.0,3.0,70,0.00,,,0.00,meteohub,2013-03-06 02:27:00,
2013-03-05 21:32:00,36.9,28.4,29.93,East,97,1.0,2.0,71,0.00,,,0.00,meteohub,2013-03-06 02:32:00,
2013-03-05 21:37:00,36.9,28.8,29.93,ESE,110,0.0,2.0,72,0.00,,,0.00,meteohub,2013-03-06 02:37:00,
2013-03-05 21:42:00,36.7,28.6,29.93,East,82,1.0,4.0,72,0.00,,,0.00,meteohub,2013-03-06 02:42:00,
2013-03-05 21:47:00,36.7,28.6,29.93,East,81,0.0,4.0,72,0.00,,,0.00,meteohub,2013-03-06 02:47:00,
2013-03-05 21:52:00,36.3,28.2,29.93,ESE,104,0.0,4.0,72,0.00,,,0.00,meteohub,2013-03-06 02:52:00,
2013-03-05 21:57:00,36.3,28.2,29.93,East,83,1.0,2.0,72,0.00,,,0.00,meteohub,2013-03-06 02:57:00,
2013-03-05 22:02:00,36.5,28.4,29.93,East,98,1.0,2.0,72,0.00,,,0.00,meteohub,2013-03-06 03:02:00,
2013-03-05 22:07:00,36.5,28.4,29.93,East,101,0.0,2.0,72,0.00,,,0.00,meteohub,2013-03-06 03:07:00,
2013-03-05 22:12:00,36.3,28.2,29.93,East,101,0.0,2.0,72,0.00,,,0.00,meteohub,2013-03-06 03:12:00,
2013-03-05 22:17:00,36.0,28.2,29.92,ENE,68,1.0,2.0,73,0.00,,,0.00,meteohub,2013-03-06 03:17:00,
2013-03-05 22:22:00,36.1,28.0,29.92,East,98,2.0,2.0,72,0.00,,,0.00,meteohub,2013-03-06 03:22:00,
2013-03-05 22:27:00,35.8,27.7,29.92,ENE,64,1.0,3.0,72,0.00,,,0.00,meteohub,2013-03-06 03:27:00,
2013-03-05 22:32:00,35.4,27.3,29.92,ENE,68,1.0,3.0,72,0.00,,,0.00,meteohub,2013-03-06 03:32:00,
2013-03-05 22:37:00,35.4,27.7,29.92,NE,39,0.0,3.0,73,0.00,,,0.00,meteohub,2013-03-06 03:37:00,
2013-03-05 22:42:00,35.1,27.3,29.91,NE,39,0.0,3.0,73,0.00,,,0.00,meteohub,2013-03-06 03:42:00,
2013-03-05 22:47:00,34.5,26.8,29.91,NE,39,0.0,2.0,73,0.00,,,0.00,meteohub,2013-03-06 03:47:00,
2013-03-05 22:52:00,33.4,26.8,29.92,ENE,64,1.0,1.0,76,0.00,,,0.00,meteohub,2013-03-06 03:52:00,
2013-03-05 22:57:00,32.9,26.4,29.91,ENE,64,0.0,1.0,77,0.00,,,0.00,meteohub,2013-03-06 03:57:00,
2013-03-05 23:02:00,32.4,25.9,29.91,ENE,64,0.0,1.0,77,0.00,,,0.00,meteohub,2013-03-06 04:02:00,
2013-03-05 23:07:00,31.6,25.9,29.91,ENE,63,0.0,1.0,79,0.00,,,0.00,meteohub,2013-03-06 04:07:00,
2013-03-05 23:12:00,31.1,25.7,29.91,ENE,64,0.0,1.0,80,0.00,,,0.00,meteohub,2013-03-06 04:12:00,
2013-03-05 23:17:00,30.6,25.3,29.91,ENE,64,0.0,1.0,81,0.00,,,0.00,meteohub,2013-03-06 04:17:00,
2013-03-05 23:22:00,30.2,25.3,29.91,ENE,64,0.0,1.0,82,0.00,,,0.00,meteohub,2013-03-06 04:22:00,
2013-03-05 23:27:00,30.0,25.5,29.91,ENE,64,0.0,1.0,83,0.00,,,0.00,meteohub,2013-03-06 04:27:00,
2013-03-05 23:32:00,29.8,25.3,29.91,ENE,64,0.0,1.0,83,0.00,,,0.00,meteohub,2013-03-06 04:32:00,
2013-03-05 23:37:00,29.5,25.0,29.91,ENE,63,0.0,0.0,83,0.00,,,0.00,meteohub,2013-03-06 04:37:00,
2013-03-05 23:42:00,29.3,25.2,29.91,ENE,64,0.0,0.0,84,0.00,,,0.00,meteohub,2013-03-06 04:42:00,
2013-03-05 23:47:00,29.1,25.0,29.91,ENE,64,0.0,0.0,84,0.00,,,0.00,meteohub,2013-03-06 04:47:00,
2013-03-05 23:52:00,29.1,25.2,29.91,ENE,63,0.0,0.0,85,0.00,,,0.00,meteohub,2013-03-06 04:52:00,
2013-03-05 23:57:00,28.9,25.0,29.90,ENE,64,0.0,0.0,85,0.00,,,0.00,meteohub,2013-03-06 04:57:00,